Regional Weather Roundup
Issued by NWS Lake Charles, LA

Home | Current Version | Previous Version | Text Only | Print | Product List | Glossary On
Versions: 1 2 3 4 5 6 7 8 9 10 11 12 13 14 15 16 17 18 19 20 21 22 23 24 25 26 27 28
000
ASUS44 KLCH 241310
RWRLCH
RWRLCH
REGIONAL WEATHER ROUNDUP
NATIONAL WEATHER SERVICE LAKE CHARLES LA
800 AM CDT FRI OCT 24 2014

Note: "fair" indicates few or no clouds below 12,000 feet with no
significant weather and/or obstructions to visibility.


ACROSS SOUTHEAST TEXAS

CITY           SKY/WX    TMP DP  RH WIND       PRES   REMARKS
BEAUMONT       CLEAR     54  51  90 N5        30.14R
BEAUMONT CITY    N/A     50  50  99 CALM      30.15R
ORANGE         SUNNY    N/A N/A N/A CALM      30.16S HAZE
JASPER         CLEAR     47  46  98 CALM      30.18R
$$

ACROSS CENTRAL LOUISIANA

CITY           SKY/WX    TMP DP  RH WIND       PRES   REMARKS
LEESVILLE      CLEAR     51  49  91 NE6       30.14S
FULLERTON        N/A     50  46  86 CALM      30.13R FOG
ALEXANDRIA INT CLEAR     46  46 100 CALM      30.14R
ESLER FIELD    CLEAR     45  44  97 CALM      30.16R
DERIDDER         N/A     48  47  95 CALM      30.17R
OAKDALE        SUNNY     46  45  96 CALM      30.15R
OPELOUSAS        N/A     48  47  99 N3        30.14S
$$

ACROSS SOUTHWEST AND SOUTH CENTRAL LOUISIANA

CITY           SKY/WX    TMP DP  RH WIND       PRES   REMARKS
SULPHUR        SUNNY     52  52  99 N3        30.14S
LAKE CHARLES   CLEAR     52  49  89 NE6       30.14R
CHENNAULT INT  CLEAR     52  48  87 VRB3      30.15R
CAMERON PHI    SUNNY     55  52  88 NE8       30.16S
DEQUINCY         N/A     47  47  99 CALM      30.15R
JENNINGS         N/A     49  49  98 CALM      30.14S
LAFAYETTE      CLEAR     51  49  92 N5        30.13R
NEW IBERIA     CLEAR     52  49  89 N8        30.13R
ABBEVILLE        N/A     47  47 100 N3        30.13R FOG
PATTERSON      CLEAR     54  52  94 N5        30.13R
SALT POINT       N/A     56  53  90 VRB3      30.10R
$$

SELECTED SITES ACROSS THE REGION

CITY           SKY/WX    TMP DP  RH WIND       PRES   REMARKS
HOUSTON BUSH   CLEAR     54  52  93 VRB5      30.15R
HOUSTON HOBBY  CLEAR     58  54  86 NE5       30.14R
GALVESTON      CLEAR     64  59  83 NE9       30.13R
COLLEGE STAT   CLEAR     58  54  86 CALM      30.16R
CONROE         CLEAR     50  49  96 CALM      30.16R
HUNTSVILLE     CLEAR     52  50  93 CALM      30.16R
LUFKIN         CLEAR     53  49  86 CALM      30.16R FOG
SHREVEPORT     CLEAR     50  48  93 CALM      30.17R
MONROE         CLEAR     46  44  93 CALM      30.17S
NATCHEZ MS     CLOUDY    46  43  87 CALM      30.15R VSB<1/4
BATON ROUGE    CLEAR     50  48  93 CALM      30.12S
N.O. INTL ARPT PTCLDY    60  52  74 NE8       30.10R
SLIDELL        CLEAR     50  46  86 N3        30.10R
$$

MARINE REPORTS

STATION/POSITION TIME  TEMP    WIND        PRES    VSBY  WAVE
                       AIR SEA DIR/SP/G                  HT/PER
                 (UTC) (F)     (DEG/KT/KT) (MB)    (MI)  (FT/S)
BUOY 30 S HIGH I 1300   67 77   30/ 10/ 14 1019.6R         2/ 7
SEA RIM ST PARK  1300   56      20/  2/  2 1021.1R
PORT ARTHUR      1300      74   10/  5/  8 1020.6R
SABINE PASS N    1300   56 72   20/  7/  8 1020.5R
TEXAS POINT      1300   55 72   20/  9/ 11 1020.5R
CALCASIEU PASS   1300   56 71   40/  9/ 10   N/A
LK CHARLES BEACH 1300   53 75              1020.6S
MARSH ISLAND     NOT AVBL
FRESH WATER LOCK 1300   55 73  350/  5/  8 1019.6R
AMERADA PASS     1300   57 68   40/  2/  4 1019.0R
$$



USA.gov is the U.S. government's official web portal to all federal, state and local government web resources and services.